Location: Spondin
(51.8528°N, 111.6118°W)
Time: 18:23:44
(UTC+00:00)

Vanguard 2 Rocket - Pass Details

Date: 28 May 2022
Orbit: 553 x 3323 km, 32.9° (Epoch: 02 July)

Event Time Altitude Azimuth Distance (km) Brightness Sun altitude
Rises 02:15:53 0° 267° (W) 6,166 12.4 9.1°
Reaches altitude 10° 02:24:14 10° 241° (WSW) 4,352 11.0 7.9°
Maximum altitude 02:27:21 11° 225° (SW) 3,895 10.4 7.5°
Drops below altitude 10° 02:30:07 10° 208° (SSW) 3,700 10.1 7.1°
Sets 02:35:27 0° 177° (S) 4,044 9.9 6.3°
